Location: TAAA CAC
(31.8680°N, 109.5150°W)
Time: 20:36:46
(UTC-07:00)

Hubble Space Telescope - Pass Details

Date: 16 March 2026
Orbit: 474 x 477 km, 28.5° (Epoch: 20 April)

Event Time Altitude Azimuth Distance (km) Brightness Sun altitude
Rises 20:21:27 0° 266° (W) 2,505 5.4 -24.9°
Reaches altitude 10° 20:23:57 10° 251° (WSW) 1,626 3.9 -25.4°
Enters shadow 20:25:52 20° 223° (SW) 1,142 2.7 -25.8°
